| time (UTC) | temp F | wind direction | speed knots | gust knots | rain 1hr in | rain 24hr in | rain mn in | humidity % | barometer mb |
| 20260506190607 | 46 | 0 | 6.1 | 12.2 | 0.00 | 0.09 | 0.09 | 33 | 1024.6 |
| 20260506190111 | 44 | 0 | 4.3 | 13.0 | 0.00 | 0.09 | 0.09 | 45 | 1024.8 |
| 20260506180607 | 45 | 0 | 4.3 | 11.3 | 0.00 | 0.09 | 0.09 | 58 | 1023.9 |
| 20260506180112 | 45 | 0 | 4.3 | 12.2 | 0.00 | 0.09 | 0.09 | 56 | 1023.8 |
| 20260506170607 | 40 | 0 | 2.6 | 7.0 | 0.00 | 0.09 | 0.09 | 80 | 1022.8 |
| 20260506170111 | 39 | 0 | 2.6 | 7.0 | 0.00 | 0.09 | 0.09 | 81 | 1022.9 |
| 20260506160112 | 36 | 0 | 5.2 | 10.4 | 0.06 | 0.09 | 0.09 | 81 | 1021.9 |
| 20260506150606 | 33 | 0 | 1.7 | 6.1 | 0.04 | 0.04 | 0.04 | 76 | 1021.7 |
| 20260506150112 | 34 | 0 | 1.7 | 13.0 | 0.03 | 0.03 | 0.03 | 75 | 1021.6 |
| 20260506140118 | 38 | 0 | 0.0 | 0.0 | 0.00 | 0.00 | 0.00 | 63 | 1020.1 |
| 20260506130607 | 34 | 0 | 0.0 | 0.9 | 0.00 | 0.00 | 0.00 | 66 | 1019.0 |
| 20260506120607 | 33 | 0 | 0.0 | 0.0 | 0.00 | 0.00 | 0.00 | 66 | 1018.2 |
| 20260506120111 | 33 | 0 | 0.0 | 0.0 | 0.00 | 0.00 | 0.00 | 66 | 1018.1 |
| 20260506110607 | 36 | 0 | 0.0 | 1.7 | 0.00 | 0.00 | 0.00 | 62 | 1017.8 |
| 20260506110111 | 36 | 0 | 0.0 | 0.9 | 0.00 | 0.00 | 0.00 | 61 | 1017.8 |
| 20260506100606 | 39 | 0 | 0.9 | 6.1 | 0.00 | 0.00 | 0.00 | 58 | 1017.9 |
| 20260506100112 | 39 | 0 | 1.7 | 6.1 | 0.00 | 0.00 | 0.00 | 59 | 1017.8 |
| 20260506090607 | 39 | 0 | 0.0 | 6.1 | 0.00 | 0.00 | 0.00 | 58 | 1017.3 |
| 20260506090112 | 39 | 0 | 1.7 | 6.1 | 0.00 | 0.00 | 0.00 | 59 | 1017.2 |
| 20260506080606 | 38 | 0 | 0.9 | 2.6 | 0.00 | 0.00 | 0.00 | 56 | 1017.3 |
| 20260506080111 | 39 | 0 | 0.0 | 5.2 | 0.00 | 0.00 | 0.00 | 55 | 1017.4 |
| 20260506070606 | 40 | 0 | 0.9 | 4.3 | 0.00 | 0.00 | 0.00 | 52 | 1017.3 |
| 20260506070111 | 41 | 0 | 0.0 | 4.3 | 0.00 | 0.00 | 0.00 | 51 | 1017.3 |
| 20260506060607 | 42 | 0 | 0.0 | 4.3 | 0.00 | 0.00 | 0.00 | 44 | 1016.9 |
| 20260506050606 | 44 | 0 | 0.9 | 5.2 | 0.00 | 0.00 | 0.00 | 39 | 1016.9 |
| 20260506050111 | 44 | 0 | 0.9 | 5.2 | 0.00 | 0.00 | 0.00 | 38 | 1016.8 |
| 20260506040606 | 40 | 0 | 0.0 | 0.0 | 0.00 | 0.00 | 0.00 | 15 | 1016.4 |
| 20260506030606 | 45 | 0 | 0.0 | 0.0 | 0.00 | 0.00 | 0.00 | 8 | 1015.3 |
| 20260506030111 | 45 | 0 | 0.0 | 0.0 | 0.00 | 0.00 | 0.00 | 8 | 1015.2 |
| 20260506010606 | 57 | 0 | 3.5 | 7.8 | 0.00 | 0.00 | 0.00 | 1 | 1013.1 |
| 20260506010112 | 57 | 0 | 3.5 | 7.8 | 0.00 | 0.00 | 0.00 | 1 | 1013.0 |
| 20260506000606 | 59 | 0 | 8.7 | 14.8 | 0.00 | 0.00 | 0.00 | 3 | 1013.0 |
| 20260506000110 | 59 | 0 | 7.8 | 14.8 | 0.00 | 0.00 | 0.00 | 4 | 1012.8 |
| 20260505230606 | 62 | 0 | 1.7 | 8.7 | 0.00 | 0.00 | 0.00 | 4 | 1012.9 |
| 20260505230111 | 62 | 0 | 1.7 | 8.7 | 0.00 | 0.00 | 0.00 | 4 | 1012.8 |
| 20260505220606 | 61 | 0 | 1.7 | 7.0 | 0.00 | 0.00 | 0.00 | 7 | 1013.6 |
| 20260505220111 | 60 | 0 | 2.6 | 7.0 | 0.00 | 0.00 | 0.00 | 7 | 1013.7 |
| 20260505210606 | 63 | 0 | 1.7 | 10.4 | 0.00 | 0.00 | 0.00 | 7 | 1014.4 |
| 20260505200606 | 61 | 0 | 2.6 | 13.9 | 0.00 | 0.00 | 0.00 | 8 | 1014.9 |
| 20260505200111 | 62 | 0 | 4.3 | 11.3 | 0.00 | 0.00 | 0.00 | 7 | 1014.8 |